Stevens Point, WI

9:44 PM CDT on March 26, 2017 (GMT -0500)
Stevens Point Municipal

Weather History for KSTE - October, 2012

Change the Weather History Date:

Friday, October 5, 2012

  Actual Average Record
Temperature  
Mean Temperature 41 °F -  
Max Temperature 48 °F 62 °F 84 °F (2005)
Min Temperature 35 °F 41 °F 21 °F (2004)
Degree Days  
Heating Degree Days 24    
Moisture  
Dew Point 25 °F    
Average Humidity 56    
Maximum Humidity 73    
Minimum Humidity 41    
Precipitation  
Precipitation 0.00 in - - ()
Sea Level Pressure  
Sea Level Pressure 30.02 in    
Wind  
Wind Speed 13 mph (West)    
Max Wind Speed 21 mph    
Max Gust Speed 32 mph    
Visibility 10 miles    
Events      
Averages and records for this station are not official NWS values.
T = Trace of Precipitation, MM = Missing Value Source: NWS Daily Summary

Daily Weather History Graph

Daily Weather History Graph

Search for Another Location

Airport or City:

Trip Planner

Search our weather history database for the weather conditions in past years. The results will help you decide how hot, cold, wet, or windy it might be!

Date:

Astronomy

Oct. 05, 2012 Rise Set
Actual Time 7:01 AM CDT 6:30 PM CDT
Civil Twilight 6:32 AM CDT 6:59 PM CDT
Nautical Twilight 5:58 AM CDT 7:33 PM CDT
Astronomical Twilight 5:24 AM CDT 8:07 PM CDT
Moon 9:42 PM CDT (10/5) 12:20 PM CDT (10/5)
Length of Visible Light 12h 27m
Length of Day
11h 29m
Waning Gibbous, 74% of the Moon is Illuminated
Oct 5
Waning Gibbous
Oct 8
Last Quarter
Oct 15
New
Oct 21
First Quarter
Oct 29
Full

Hourly Weather History & Observations

Time (CDT) Temp. Windchill Dew Point Humidity Pressure Visibility Wind Dir Wind Speed Gust Speed Precip Events Conditions
12:15 AM 42.1 °F 33.1 °F 27.7 °F 57% 30.05 in 10.0 mi West 20.7 mph 31.1 mph N/A   Overcast
12:35 AM 41.2 °F 34.1 °F 27.1 °F 57% 30.05 in 10.0 mi West 12.7 mph 27.6 mph N/A   Mostly Cloudy
12:55 AM 40.5 °F 34.6 °F 27.3 °F 59% 30.04 in 10.0 mi West 9.2 mph 19.6 mph N/A   Scattered Clouds
1:15 AM 40.1 °F 33.2 °F 27.0 °F 59% 30.05 in 10.0 mi West 11.5 mph 21.9 mph N/A   Scattered Clouds
1:35 AM 39.6 °F 33.0 °F 27.0 °F 61% 30.04 in 10.0 mi WSW 10.4 mph 16.1 mph N/A   Clear
1:55 AM 39.2 °F 34.2 °F 27.0 °F 62% 30.05 in 10.0 mi West 6.9 mph 18.4 mph N/A   Clear
2:15 AM 39.2 °F 32.0 °F 27.0 °F 62% 30.05 in 10.0 mi West 11.5 mph 17.3 mph N/A   Mostly Cloudy
2:35 AM 38.8 °F 32.6 °F 26.6 °F 61% 30.05 in 10.0 mi WSW 9.2 mph - N/A   Overcast
2:55 AM 38.8 °F 31.2 °F 26.4 °F 61% 30.05 in 10.0 mi WSW 12.7 mph 20.7 mph N/A   Overcast
3:15 AM 38.7 °F 32.4 °F 26.4 °F 61% 30.04 in 10.0 mi West 9.2 mph - N/A   Overcast
3:35 AM 38.3 °F 31.9 °F 26.4 °F 62% 30.03 in 10.0 mi WSW 9.2 mph - N/A   Overcast
3:55 AM 38.3 °F 31.9 °F 26.6 °F 63% 30.03 in 10.0 mi WSW 9.2 mph - N/A   Overcast
4:15 AM 38.5 °F 32.7 °F 26.6 °F 62% 30.03 in 10.0 mi WSW 8.1 mph 18.4 mph N/A   Overcast
4:35 AM 38.1 °F 32.9 °F 27.0 °F 64% 30.04 in 10.0 mi WSW 6.9 mph - N/A   Overcast
4:55 AM 37.6 °F 30.5 °F 27.0 °F 66% 30.03 in 10.0 mi West 10.4 mph - N/A   Mostly Cloudy
5:15 AM 38.3 °F 30.5 °F 26.2 °F 62% 30.03 in 10.0 mi West 12.7 mph 29.9 mph N/A   Scattered Clouds
5:35 AM 38.1 °F 29.5 °F 26.1 °F 62% 30.04 in 10.0 mi West 15.0 mph 25.3 mph N/A   Clear
5:55 AM 36.5 °F 31.0 °F 26.6 °F 67% 30.04 in 10.0 mi WSW 6.9 mph - N/A   Mostly Cloudy
6:15 AM 36.0 °F 30.3 °F 26.6 °F 69% 30.03 in 10.0 mi WSW 6.9 mph - N/A   Scattered Clouds
6:35 AM 35.4 °F 29.0 °F 27.0 °F 71% 30.03 in 10.0 mi WSW 8.1 mph - N/A   Mostly Cloudy
6:55 AM 35.1 °F 27.9 °F 27.1 °F 73% 30.03 in 10.0 mi SW 9.2 mph - N/A   Mostly Cloudy
7:15 AM 35.1 °F 26.9 °F 27.3 °F 73% 30.03 in 10.0 mi WSW 11.5 mph - N/A   Overcast
7:35 AM 35.1 °F 26.9 °F 27.3 °F 73% 30.03 in 10.0 mi WSW 11.5 mph 17.3 mph N/A   Overcast
7:55 AM 35.6 °F 26.6 °F 26.6 °F 70% 30.04 in 10.0 mi WSW 13.8 mph 17.3 mph N/A   Mostly Cloudy
8:15 AM 36.5 °F 27.4 °F 27.0 °F 68% 30.03 in 10.0 mi WSW 15.0 mph 18.4 mph N/A   Scattered Clouds
8:35 AM 36.9 °F 29.1 °F 27.1 °F 68% 30.03 in 10.0 mi WSW 11.5 mph 23.0 mph N/A   Clear
8:55 AM 38.1 °F 29.5 °F 26.6 °F 63% 30.03 in 10.0 mi WSW 15.0 mph 25.3 mph N/A   Clear
9:15 AM 39.7 °F 31.9 °F 26.6 °F 59% 30.03 in 10.0 mi West 13.8 mph 25.3 mph N/A   Scattered Clouds
9:35 AM 39.6 °F 30.6 °F 25.9 °F 58% 30.03 in 10.0 mi West 17.3 mph 25.3 mph N/A   Scattered Clouds
9:55 AM 40.1 °F 32.0 °F 25.9 °F 57% 30.03 in 10.0 mi West 15.0 mph 25.3 mph N/A   Clear
10:15 AM 40.5 °F 31.8 °F 25.9 °F 56% 30.03 in 10.0 mi WSW 17.3 mph 24.2 mph N/A   Scattered Clouds
10:35 AM 42.1 °F 33.6 °F 25.9 °F 53% 30.03 in 10.0 mi West 18.4 mph 26.5 mph N/A   Clear
10:55 AM 41.7 °F 34.1 °F 25.5 °F 53% 30.02 in 10.0 mi West 15.0 mph 25.3 mph N/A   Clear
11:35 AM 43.3 °F 35.8 °F 25.7 °F 50% 30.02 in 10.0 mi West 16.1 mph 25.3 mph N/A   Clear
11:55 AM 43.0 °F 36.0 °F 25.0 °F 49% 30.01 in 10.0 mi West 13.8 mph 25.3 mph N/A   Scattered Clouds
12:15 PM 44.8 °F 38.0 °F 25.3 °F 47% 30.01 in 10.0 mi WSW 15.0 mph 23.0 mph N/A   Scattered Clouds
12:35 PM 44.8 °F 37.7 °F 25.2 °F 46% 30.00 in 10.0 mi West 16.1 mph 27.6 mph N/A   Scattered Clouds
12:55 PM 45.3 °F 38.1 °F 25.0 °F 45% 29.99 in 10.0 mi WSW 17.3 mph 23.0 mph N/A   Scattered Clouds
1:35 PM 46.6 °F - 24.6 °F 42% 29.98 in 10.0 mi West 15.0 mph 26.5 mph N/A   Scattered Clouds
1:55 PM 46.8 °F - 25.2 °F 43% 29.98 in 10.0 mi West 17.3 mph 24.2 mph N/A   Mostly Cloudy
2:15 PM 47.3 °F - 24.8 °F 41% 29.97 in 10.0 mi West 17.3 mph 28.8 mph N/A   Scattered Clouds
2:35 PM 47.5 °F - 24.8 °F 41% 29.97 in 10.0 mi West 16.1 mph 26.5 mph N/A   Mostly Cloudy
2:55 PM 47.3 °F - 24.6 °F 41% 29.97 in 10.0 mi WNW 11.5 mph 23.0 mph N/A   Mostly Cloudy
3:15 PM 46.6 °F - 24.4 °F 42% 29.96 in 10.0 mi West 13.8 mph 20.7 mph N/A   Mostly Cloudy
3:35 PM 46.4 °F 41.1 °F 24.4 °F 42% 29.97 in 10.0 mi West 11.5 mph 21.9 mph N/A   Scattered Clouds
3:55 PM 46.4 °F 40.4 °F 24.8 °F 43% 29.97 in 10.0 mi WNW 13.8 mph 25.3 mph N/A   Scattered Clouds
4:15 PM 46.0 °F 39.9 °F 24.4 °F 43% 29.98 in 10.0 mi West 13.8 mph 32.2 mph N/A   Mostly Cloudy
4:35 PM 45.9 °F 39.7 °F 24.8 °F 44% 29.98 in 10.0 mi WNW 13.8 mph 20.7 mph N/A   Overcast
4:55 PM 45.5 °F 38.9 °F 24.4 °F 44% 29.98 in 10.0 mi West 15.0 mph 29.9 mph N/A   Overcast
5:15 PM 45.0 °F 38.9 °F 24.6 °F 45% 29.99 in 10.0 mi West 12.7 mph 21.9 mph N/A   Overcast
5:35 PM 44.1 °F 37.1 °F 24.3 °F 46% 29.99 in 10.0 mi West 15.0 mph 21.9 mph N/A   Overcast
6:15 PM 43.0 °F 37.2 °F 24.8 °F 49% 29.99 in 10.0 mi West 10.4 mph 23.0 mph N/A   Overcast
6:35 PM 42.8 °F 37.5 °F 24.3 °F 48% 30.00 in 10.0 mi WNW 9.2 mph 29.9 mph N/A   Overcast
6:55 PM 41.2 °F 33.7 °F 23.9 °F 50% 30.01 in 10.0 mi WNW 13.8 mph 21.9 mph N/A   Overcast
7:15 PM 40.5 °F 33.6 °F 23.9 °F 52% 30.02 in 10.0 mi NW 11.5 mph 24.2 mph N/A   Overcast
7:35 PM 40.1 °F 33.6 °F 23.9 °F 52% 30.02 in 10.0 mi WNW 10.4 mph 21.9 mph N/A   Overcast
7:55 PM 39.6 °F 30.6 °F 23.7 °F 53% 30.03 in 10.0 mi WNW 17.3 mph 25.3 mph N/A   Overcast
8:15 PM 39.0 °F 32.8 °F 23.4 °F 53% 30.03 in 10.0 mi WNW 9.2 mph 21.9 mph N/A   Overcast
8:35 PM 38.5 °F 32.1 °F 22.6 °F 53% 30.03 in 10.0 mi WNW 9.2 mph 20.7 mph N/A   Overcast
8:55 PM 38.3 °F 32.5 °F 22.3 °F 53% 30.03 in 10.0 mi WNW 8.1 mph 18.4 mph N/A   Overcast
9:15 PM 38.3 °F 33.2 °F 22.3 °F 53% 30.02 in 10.0 mi West 6.9 mph 19.6 mph N/A   Overcast
9:35 PM 38.3 °F 29.0 °F 22.8 °F 54% 30.02 in 10.0 mi West 17.3 mph 29.9 mph N/A   Overcast
9:55 PM 38.3 °F 30.9 °F 22.5 °F 53% 30.01 in 10.0 mi West 11.5 mph 18.4 mph N/A   Overcast
10:35 PM 37.9 °F 31.5 °F 22.8 °F 55% 30.01 in 10.0 mi West 9.2 mph 19.6 mph N/A   Overcast
10:55 PM 37.4 °F 29.3 °F 23.0 °F 56% 30.01 in 10.0 mi West 12.7 mph 19.6 mph N/A   Mostly Cloudy
11:15 PM 36.9 °F 30.1 °F 23.4 °F 58% 30.01 in 10.0 mi West 9.2 mph 17.3 mph N/A   Scattered Clouds
11:35 PM 36.5 °F 28.7 °F 23.5 °F 59% 30.01 in 10.0 mi West 11.5 mph 17.3 mph N/A   Clear
11:55 PM 36.1 °F 29.9 °F 23.9 °F 61% 30.01 in 10.0 mi West 8.1 mph 18.4 mph N/A   Mostly Cloudy